FW7184 Weather Reports


Display with metric or nautical units.
time (UTC)temp
F
wind
direction
speed
MPH
gust
MPH
rain 1hr
in
rain 24hr
in
rain mn
in
humidity
%
barometer
mb
20260510015842 51 121 0.0 0.0 0.00 0.50 0.50 99 1011.9
20260510015338 51 124 0.0 0.0 0.00 0.50 0.50 99 1011.9
20260510014834 51 123 0.0 0.0 0.00 0.50 0.50 99 1011.9
20260510014331 51 122 0.0 0.0 0.00 0.50 0.50 99 1011.5
20260510013827 50 121 0.0 0.0 0.00 0.50 0.50 99 1011.5
20260510013323 50 124 0.0 0.0 0.00 0.50 0.50 99 1011.5
20260510012818 50 125 0.0 0.0 0.00 0.50 0.50 99 1011.5
20260510012318 51 124 0.0 0.0 0.00 0.50 0.50 99 1011.5
20260510011813 51 119 0.0 0.0 0.00 0.50 0.50 99 1011.1
20260510011308 51 126 0.0 0.0 0.00 0.50 0.50 99 1011.0
20260510010805 50 127 0.0 0.0 0.00 0.50 0.50 99 1011.1
20260510010302 50 122 0.0 0.0 0.00 0.50 0.50 99 1011.1
20260510005759 51 121 0.0 0.0 0.00 0.50 0.50 99 1011.0
20260510005255 51 122 0.0 0.0 0.00 0.50 0.50 99 1010.8
20260510004753 51 121 0.0 0.0 0.00 0.50 0.50 99 1010.9
20260510004251 51 126 0.0 0.0 0.00 0.50 0.50 99 1011.1
20260510003748 51 125 0.0 0.0 0.00 0.50 0.50 99 1010.9
20260510003244 52 125 0.0 0.0 0.00 0.50 0.50 99 1011.1
20260510002743 52 122 0.0 0.0 0.00 0.50 0.50 99 1011.1
20260510002241 52 127 0.0 0.0 0.00 0.50 0.50 99 1011.0
20260510001738 52 121 0.0 0.0 0.00 0.50 0.50 99 1011.1
20260510001236 53 120 0.0 0.0 0.00 0.50 0.50 99 1011.3
20260510000731 53 121 0.0 0.0 0.00 0.50 0.50 99 1011.0
20260510000229 53 122 0.0 0.0 0.00 0.50 0.50 99 1010.6
20260509235725 53 127 0.0 0.0 0.00 0.50 0.50 99 1010.7
20260509235222 53 123 0.0 0.0 0.00 0.50 0.50 99 1010.9
20260509234718 53 123 0.0 0.0 0.00 0.50 0.50 99 1010.7
20260509234215 53 125 0.0 0.0 0.00 0.50 0.50 99 1010.8
20260509233713 54 121 0.0 0.0 0.00 0.50 0.50 99 1010.6
20260509233211 54 127 0.0 0.0 0.00 0.50 0.50 99 1010.5
20260509232707 54 129 0.0 0.0 0.00 0.50 0.50 99 1010.7
20260509232204 54 124 0.0 0.0 0.00 0.50 0.50 99 1010.8
20260509231700 54 128 0.0 0.0 0.00 0.50 0.50 99 1010.8
20260509231158 54 122 0.0 0.0 0.00 0.50 0.50 99 1010.9
20260509230655 54 123 0.0 0.0 0.00 0.50 0.50 99 1011.1
20260509230151 54 122 0.0 0.0 0.00 0.50 0.50 99 1010.9
20260509225647 54 127 0.0 0.0 0.00 0.50 0.50 99 1010.8
20260509225143 54 123 0.0 0.0 0.00 0.50 0.50 99 1010.8
20260509224639 54 127 0.0 0.0 0.00 0.50 0.50 99 1010.7
20260509224136 54 118 0.0 0.0 0.00 0.50 0.50 99 1010.8
20260509223632 54 130 0.0 0.0 0.00 0.50 0.50 99 1011.0
20260509223130 54 132 0.0 0.0 0.00 0.50 0.50 99 1011.0
20260509222626 54 123 0.0 0.0 0.00 0.50 0.50 99 1010.9
20260509222122 54 126 0.0 0.0 0.00 0.50 0.50 99 1011.1
20260509221618 54 127 0.0 0.0 0.00 0.50 0.50 99 1011.3
20260509221114 54 127 0.0 0.0 0.07 0.50 0.50 99 1011.1
20260509220610 53 120 0.0 0.0 0.14 0.50 0.50 99 1011.1
20260509220107 54 122 0.0 0.0 0.12 0.49 0.49 99 1011.1
20260509215602 53 124 0.0 0.0 0.24 0.48 0.48 99 1011.1
20260509215100 53 132 0.0 0.0 0.31 0.47 0.47 99 1011.6
20260509214556 54 140 0.0 0.0 0.31 0.43 0.43 99 1011.7
20260509214053 53 126 0.0 0.0 0.31 0.41 0.41 99 1011.6
20260509213549 54 116 0.0 0.0 0.19 0.38 0.38 99 1011.8
20260509213046 54 113 0.0 0.0 0.19 0.36 0.36 99 1011.5
20260509212543 54 127 0.0 0.0 0.35 0.35 0.35 99 1011.2
20260509212041 54 123 0.0 0.0 0.19 0.32 0.32 99 1011.5
20260509211536 54 121 0.0 0.0 0.12 0.29 0.29 99 1011.5
20260509211033 54 120 0.0 0.0 0.17 0.29 0.29 99 1011.1
20260509210530 54 125 0.0 0.0 0.19 0.27 0.27 99 1011.7
20260509210026 54 126 0.0 0.0 0.19 0.25 0.25 99 1011.5
20260509205520 54 125 0.0 0.0 0.12 0.23 0.23 99 1011.8
20260509205016 55 128 0.0 0.0 0.17 0.22 0.22 99 1011.8
20260509204513 55 129 0.0 0.0 0.19 0.21 0.21 98 1011.8
20260509204009 55 126 0.0 0.0 0.12 0.18 0.18 98 1012.2
20260509203504 55 119 0.0 0.0 0.07 0.17 0.17 98 1012.3
20260509203003 55 134 0.0 0.0 0.05 0.16 0.16 97 1012.0
20260509202458 55 125 0.0 0.0 0.05 0.16 0.16 97 1011.7
20260509201953 55 132 0.0 0.0 0.00 0.15 0.15 96 1012.1
20260509201448 55 133 0.0 0.0 0.07 0.15 0.15 95 1011.8
20260509200946 55 108 0.0 0.0 0.07 0.15 0.15 95 1011.7
20260509200441 56 114 0.0 1.0 0.00 0.14 0.14 97 1011.6
20260509195937 56 132 0.0 0.0 0.00 0.14 0.14 97 1011.3
20260509195433 56 121 0.0 0.0 0.00 0.14 0.14 96 1011.5
20260509194932 56 122 0.0 0.0 0.00 0.14 0.14 97 1011.7
20260509194428 56 123 0.0 0.0 0.00 0.14 0.14 97 1011.6
20260509193926 56 118 0.0 0.0 0.00 0.14 0.14 97 1011.7
20260509193425 56 125 0.0 0.0 0.00 0.14 0.14 97 1011.9
20260509192921 56 127 0.0 0.0 0.00 0.14 0.14 97 1011.6
20260509192418 56 127 0.0 0.0 0.00 0.14 0.14 97 1011.9
20260509191913 56 130 0.0 0.0 0.05 0.14 0.14 97 1011.9
20260509191408 56 132 0.0 0.0 0.05 0.14 0.14 96 1012.0
20260509190905 56 133 0.0 0.0 0.07 0.13 0.13 95 1011.9
20260509190402 55 98 2.0 3.0 0.07 0.13 0.13 95 1012.0
20260509185900 56 43 0.0 1.0 0.07 0.12 0.12 96 1012.1
20260509185356 56 122 0.0 0.0 0.05 0.11 0.11 95 1012.1
20260509184853 56 121 0.0 0.0 0.12 0.11 0.11 94 1012.4
20260509184350 57 29 1.0 1.0 0.24 0.10 0.10 94 1012.3
20260509183847 57 119 0.0 1.0 0.19 0.08 0.08 93 1012.4
20260509183342 58 137 0.0 0.0 0.12 0.06 0.06 92 1012.5
20260509182838 58 134 1.0 1.0 0.07 0.04 0.04 89 1012.2
20260509182336 59 122 0.0 0.0 0.05 0.03 0.03 87 1012.0
20260509181833 60 122 0.0 0.0 0.00 0.02 0.02 82 1011.9
20260509181330 61 195 1.0 1.0 0.00 0.02 0.02 79 1011.9
20260509180827 61 131 0.0 0.0 0.00 0.02 0.02 78 1011.6
20260509180323 61 131 0.0 0.0 0.00 0.02 0.02 76 1011.3
20260509175819 62 123 0.0 0.0 0.00 0.02 0.02 76 1011.3
20260509175316 62 118 0.0 0.0 0.00 0.02 0.02 74 1011.1
20260509174812 63 128 0.0 1.0 0.00 0.02 0.02 71 1011.2
20260509174308 63 134 0.0 1.0 0.00 0.02 0.02 73 1011.1
20260509173804 62 117 0.0 0.0 0.00 0.02 0.02 74 1011.2
20260509173300 64 98 1.0 1.0 0.00 0.02 0.02 72 1011.1
20260509172755 63 155 1.0 1.0 0.00 0.02 0.02 73 1011.5
20260509172253 63 129 1.0 1.0 0.00 0.02 0.02 73 1011.3
20260509171748 62 129 0.0 0.0 0.00 0.02 0.02 76 1011.5
20260509171245 62 123 0.0 0.0 0.00 0.02 0.02 75 1011.3
20260509170741 62 124 0.0 0.0 0.00 0.02 0.02 76 1011.5
20260509170237 62 124 0.0 0.0 0.00 0.02 0.02 76 1011.5
20260509165736 63 126 0.0 0.0 0.00 0.02 0.02 76 1011.7
20260509165231 62 128 0.0 0.0 0.00 0.02 0.02 75 1011.5
20260509164727 62 120 0.0 0.0 0.00 0.02 0.02 75 1011.6
20260509164223 61 118 0.0 0.0 0.00 0.02 0.02 77 1011.8
20260509163721 61 127 0.0 0.0 0.00 0.02 0.02 79 1011.8
20260509163217 61 138 0.0 1.0 0.00 0.02 0.02 79 1012.0
20260509162715 60 153 0.0 1.0 0.00 0.02 0.02 79 1012.3
20260509162210 60 141 0.0 0.0 0.00 0.02 0.02 81 1012.0
20260509161706 60 121 0.0 0.0 0.00 0.02 0.02 81 1012.1
20260509161202 60 109 0.0 0.0 0.00 0.02 0.02 82 1012.6
20260509160658 60 121 0.0 0.0 0.00 0.02 0.02 82 1012.5
20260509160154 59 126 0.0 0.0 0.00 0.02 0.02 83 1012.3
20260509155649 59 131 0.0 0.0 0.00 0.02 0.02 84 1012.8
20260509155146 59 120 0.0 0.0 0.00 0.02 0.02 84 1012.6
20260509154642 59 127 0.0 0.0 0.00 0.02 0.02 84 1012.9
20260509154139 58 131 0.0 1.0 0.00 0.02 0.02 85 1012.7
20260509153636 57 178 1.0 1.0 0.00 0.02 0.02 85 1012.6
20260509153133 57 120 0.0 0.0 0.00 0.02 0.02 86 1012.6
20260509152628 57 116 0.0 0.0 0.00 0.02 0.02 87 1012.9
20260509152126 57 111 1.0 1.0 0.00 0.02 0.02 88 1012.9
20260509151622 57 90 0.0 0.0 0.00 0.02 0.02 88 1012.9
20260509151120 57 122 0.0 0.0 0.00 0.02 0.02 88 1012.5
20260509150617 57 125 0.0 0.0 0.00 0.02 0.02 87 1012.6
20260509150115 57 137 0.0 0.0 0.00 0.02 0.02 88 1012.8
20260509145611 57 125 0.0 1.0 0.00 0.02 0.02 88 1012.8
20260509145106 57 138 1.0 1.0 0.00 0.02 0.02 87 1012.8
20260509144603 57 130 0.0 0.0 0.00 0.02 0.02 87 1012.8
20260509144100 58 124 0.0 0.0 0.00 0.02 0.02 86 1012.8
20260509143557 57 129 0.0 0.0 0.00 0.02 0.02 86 1012.8
20260509143055 57 145 0.0 1.0 0.00 0.02 0.02 87 1012.7
20260509142550 57 138 0.0 0.0 0.00 0.02 0.02 88 1012.8
20260509142046 56 118 0.0 0.0 0.00 0.02 0.02 88 1012.7
20260509141543 56 99 0.0 0.0 0.00 0.02 0.02 88 1012.8
20260509141040 56 122 0.0 0.0 0.00 0.02 0.02 89 1012.8
20260509140537 55 124 0.0 0.0 0.00 0.02 0.02 89 1012.8
20260509140035 56 129 0.0 1.0 0.00 0.02 0.02 89 1012.4
20260509135531 56 149 0.0 1.0 0.00 0.02 0.02 89 1012.6
20260509135029 55 126 0.0 0.0 0.00 0.02 0.02 89 1012.5
20260509134526 55 123 0.0 0.0 0.00 0.02 0.02 91 1012.6
20260509134024 54 132 0.0 0.0 0.00 0.02 0.02 92 1012.5
20260509133520 54 107 0.0 0.0 0.00 0.02 0.02 91 1012.8
20260509133018 54 123 0.0 0.0 0.00 0.02 0.02 92 1013.0
20260509132516 54 110 0.0 0.0 0.00 0.02 0.02 93 1013.1
20260509132014 53 133 0.0 0.0 0.00 0.02 0.02 94 1013.2
20260509131510 53 161 1.0 1.0 0.00 0.02 0.02 94 1013.0
20260509131007 53 123 0.0 0.0 0.00 0.02 0.02 95 1012.9
20260509130502 53 114 0.0 0.0 0.00 0.02 0.02 96 1013.1
20260509125959 52 122 0.0 0.0 0.00 0.02 0.02 96 1013.0
20260509125456 52 120 0.0 0.0 0.00 0.02 0.02 96 1013.1
20260509124952 52 128 0.0 0.0 0.00 0.02 0.02 96 1013.2
20260509124449 52 124 0.0 0.0 0.00 0.02 0.02 96 1013.2
20260509123946 52 123 0.0 0.0 0.00 0.02 0.02 96 1013.0
20260509123444 51 129 0.0 0.0 0.00 0.02 0.02 96 1013.0
20260509122939 51 131 0.0 0.0 0.00 0.02 0.02 96 1013.3
20260509122436 51 95 0.0 0.0 0.00 0.02 0.02 96 1013.3
20260509121933 51 140 0.0 1.0 0.00 0.02 0.02 96 1012.6
20260509121430 51 114 0.0 0.0 0.00 0.02 0.02 96 1012.8
20260509120928 51 139 0.0 0.0 0.00 0.02 0.02 96 1012.9
20260509120426 51 126 0.0 0.0 0.00 0.02 0.02 96 1013.1
20260509115924 51 100 0.0 0.0 0.07 0.02 0.02 96 1013.1
20260509115421 51 125 0.0 0.0 0.07 0.02 0.02 96 1013.3
20260509114918 51 130 0.0 0.0 0.00 0.01 0.01 96 1013.4
20260509114417 50 125 0.0 0.0 0.00 0.01 0.01 96 1013.6
20260509113916 50 131 0.0 0.0 0.00 0.01 0.01 96 1013.8
20260509113413 50 122 0.0 0.0 0.00 0.01 0.01 96 1013.4
20260509112909 50 134 0.0 0.0 0.00 0.01 0.01 96 1013.7
20260509112407 50 122 0.0 0.0 0.00 0.01 0.01 96 1013.5
20260509111904 50 122 0.0 0.0 0.00 0.01 0.01 96 1013.2
20260509111400 50 128 0.0 0.0 0.00 0.01 0.01 96 1013.6
20260509110858 49 121 0.0 0.0 0.00 0.01 0.01 96 1013.4
20260509110354 49 121 0.0 0.0 0.00 0.01 0.01 97 1013.2
20260509105852 49 125 0.0 0.0 0.00 0.01 0.01 97 1013.1
20260509105350 49 130 0.0 0.0 0.00 0.01 0.01 97 1012.9
20260509104847 49 130 0.0 0.0 0.00 0.01 0.01 97 1013.2
20260509104343 49 140 0.0 0.0 0.00 0.01 0.01 98 1013.0
20260509103841 49 124 0.0 0.0 0.00 0.01 0.01 99 1012.9
20260509103338 48 123 0.0 0.0 0.00 0.01 0.01 99 1013.1
20260509102837 48 126 0.0 0.0 0.00 0.01 0.01 99 1012.8
20260509102334 48 124 0.0 0.0 0.00 0.01 0.01 99 1012.8
20260509101829 48 126 0.0 0.0 0.00 0.01 0.01 99 1012.9
20260509101326 48 123 0.0 0.0 0.00 0.01 0.01 99 1012.8
20260509100824 48 129 0.0 0.0 0.00 0.01 0.01 99 1012.9
20260509100321 48 134 0.0 0.0 0.00 0.01 0.01 99 1012.6
20260509095817 48 129 0.0 0.0 0.00 0.01 0.01 99 1012.9
20260509095315 48 118 0.0 0.0 0.00 0.01 0.01 99 1012.8
20260509094812 48 126 0.0 0.0 0.00 0.01 0.01 99 1012.8
20260509094308 48 124 0.0 0.0 0.00 0.01 0.01 99 1013.0
20260509093806 48 123 0.0 0.0 0.00 0.01 0.01 99 1012.9
20260509093303 48 125 0.0 0.0 0.00 0.01 0.01 99 1012.8
20260509092802 48 124 0.0 0.0 0.00 0.01 0.01 99 1013.1
20260509092259 48 123 0.0 0.0 0.00 0.01 0.01 99 1013.1
20260509091757 48 124 0.0 0.0 0.00 0.01 0.01 99 1013.0
20260509091253 48 124 0.0 0.0 0.00 0.01 0.01 99 1013.2
20260509090751 48 125 0.0 0.0 0.00 0.01 0.01 99 1013.0
20260509090248 48 124 0.0 0.0 0.00 0.01 0.01 99 1013.0
20260509085745 48 125 0.0 0.0 0.00 0.01 0.01 99 1013.0
20260509085243 48 124 0.0 0.0 0.00 0.01 0.01 99 1012.9
20260509084739 48 126 0.0 0.0 0.00 0.01 0.01 99 1012.7
20260509084235 48 126 0.0 0.0 0.00 0.01 0.01 99 1013.2
20260509083734 48 126 0.0 0.0 0.00 0.01 0.01 99 1013.2
20260509083230 49 124 0.0 0.0 0.00 0.01 0.01 99 1012.9
20260509082727 49 122 0.0 0.0 0.00 0.01 0.01 99 1012.9
20260509082224 49 125 0.0 0.0 0.00 0.01 0.01 99 1013.2
20260509081720 49 129 0.0 0.0 0.00 0.01 0.01 99 1013.2
20260509081218 49 130 0.0 0.0 0.00 0.01 0.01 99 1013.3
20260509080716 49 125 0.0 0.0 0.00 0.01 0.01 98 1013.2
20260509080213 49 121 0.0 0.0 0.00 0.01 0.01 98 1013.1
20260509075711 49 126 0.0 0.0 0.00 0.01 0.01 98 1013.3
20260509075209 49 123 0.0 0.0 0.00 0.01 0.01 98 1013.0
20260509074705 49 127 0.0 0.0 0.00 0.01 0.01 98 1013.1
20260509074203 49 128 0.0 0.0 0.00 0.01 0.01 98 1013.0
20260509073659 48 125 0.0 0.0 0.00 0.01 0.01 98 1013.3
20260509073155 48 127 0.0 0.0 0.00 0.01 0.01 98 1013.1
20260509072652 49 128 0.0 0.0 0.00 0.01 0.01 97 1013.0
20260509072149 49 129 0.0 0.0 0.00 0.01 0.01 97 1012.8
20260509071645 49 124 0.0 0.0 0.00 0.01 0.01 97 1012.9
20260509071143 49 127 0.0 0.0 0.00 0.01 0.01 97 1013.0
20260509070640 49 123 0.0 0.0 0.00 0.01 0.01 97 1012.7
20260509070136 49 123 0.0 0.0 0.00 0.01 0.01 96 1013.2
20260509065632 49 120 0.0 0.0 0.05 0.01 0.01 96 1013.3
20260509065128 49 128 0.0 0.0 0.05 0.01 0.01 96 1013.2
20260509064625 49 125 0.0 0.0 0.00 0.00 0.00 96 1013.3
20260509064123 49 122 0.0 0.0 0.00 0.00 0.00 95 1013.1
20260509063619 49 124 0.0 0.0 0.00 0.00 0.00 95 1013.0
20260509063111 49 124 0.0 0.0 0.00 0.00 0.00 95 1013.2
20260509062608 49 124 0.0 0.0 0.00 0.00 0.00 95 1013.0
20260509062105 49 126 0.0 0.0 0.00 0.00 0.00 94 1013.2
20260509061602 49 125 0.0 0.0 0.00 0.00 0.00 94 1013.3
20260509061059 49 124 0.0 0.0 0.00 0.00 0.00 93 1013.2
20260509060557 49 124 0.0 0.0 0.00 0.00 0.00 93 1013.5
20260509060052 49 126 0.0 0.0 0.00 0.00 0.00 92 1013.4
20260509055548 49 130 0.0 0.0 0.00 0.00 0.00 92 1013.5
20260509055044 49 126 0.0 0.0 0.00 0.00 0.00 91 1013.8
20260509054541 49 127 0.0 0.0 0.00 0.00 0.00 91 1013.5
20260509054039 49 131 0.0 0.0 0.00 0.00 0.00 91 1013.5
20260509053537 49 126 0.0 0.0 0.00 0.00 0.00 90 1013.4
20260509053034 49 124 0.0 0.0 0.00 0.00 0.00 90 1013.5
20260509052532 49 126 0.0 0.0 0.00 0.00 0.00 90 1013.7
20260509052029 49 123 0.0 0.0 0.00 0.00 0.00 90 1013.7
20260509051527 49 124 0.0 0.0 0.00 0.00 0.00 89 1013.8
20260509051023 49 126 0.0 0.0 0.00 0.00 0.00 89 1013.8
20260509050520 49 126 0.0 0.0 0.00 0.00 0.00 89 1013.6
20260509050011 48 131 0.0 0.0 0.00 0.00 0.00 89 1013.5
20260509045509 48 132 0.0 0.0 0.00 0.00 0.00 90 1013.6
20260509045006 49 124 0.0 0.0 0.00 0.00 0.00 91 1013.6
20260509044504 48 124 0.0 0.0 0.00 0.00 0.00 91 1013.9
20260509044001 48 124 0.0 0.0 0.00 0.00 0.00 91 1013.5
20260509043456 48 122 0.0 0.0 0.00 0.00 0.00 91 1013.7
20260509042951 48 126 0.0 0.0 0.00 0.00 0.00 91 1013.4
20260509042449 48 127 0.0 0.0 0.00 0.00 0.00 91 1013.9
20260509041945 48 123 0.0 0.0 0.00 0.00 0.00 90 1013.6
20260509041442 48 124 0.0 0.0 0.00 0.00 0.00 90 1013.5
20260509040940 48 126 0.0 0.0 0.00 0.00 0.00 90 1013.8
20260509040438 48 124 0.0 0.0 0.00 0.00 0.00 89 1013.6
20260509035934 49 124 0.0 0.0 0.00 0.04 0.04 89 1013.7
20260509035431 49 121 0.0 0.0 0.00 0.04 0.04 88 1013.6
20260509034927 49 124 0.0 0.0 0.00 0.04 0.04 88 1013.7
20260509034426 50 128 0.0 0.0 0.00 0.04 0.04 88 1013.7
20260509033922 50 127 0.0 0.0 0.00 0.04 0.04 88 1013.8
20260509033419 50 126 0.0 0.0 0.00 0.04 0.04 88 1013.7
20260509032916 50 126 0.0 0.0 0.00 0.04 0.04 88 1013.8
20260509032413 50 124 0.0 0.0 0.00 0.04 0.04 88 1013.7
20260509031911 50 126 0.0 0.0 0.00 0.04 0.04 87 1013.7
20260509031408 50 128 0.0 0.0 0.00 0.04 0.04 87 1013.7
20260509030906 50 126 0.0 0.0 0.00 0.04 0.04 86 1013.8
20260509030404 50 126 0.0 0.0 0.00 0.04 0.04 86 1013.7
20260509025901 50 126 0.0 0.0 0.00 0.04 0.04 86 1013.7
20260509025355 50 126 0.0 0.0 0.00 0.04 0.04 85 1013.8
20260509024851 50 127 0.0 0.0 0.00 0.04 0.04 86 1013.7
20260509024347 50 127 0.0 0.0 0.00 0.04 0.04 86 1013.5
20260509023844 50 126 0.0 0.0 0.00 0.04 0.04 86 1013.6
20260509023342 50 129 0.0 0.0 0.00 0.04 0.04 86 1013.5
20260509022838 50 131 0.0 0.0 0.00 0.04 0.04 86 1013.4
20260509022335 50 128 0.0 0.0 0.00 0.04 0.04 86 1013.5
20260509021832 50 128 0.0 0.0 0.00 0.04 0.04 86 1013.4
20260509021330 50 129 0.0 0.0 0.00 0.04 0.04 85 1013.4
20260509020827 50 128 0.0 0.0 0.00 0.04 0.04 85 1013.2
20260509020325 50 124 0.0 0.0 0.00 0.04 0.04 84 1013.1